N973SE ENCN-EKCH

Flight info

Callsign N973SE
Flight time 1h 10m
Altitude 23000
Route AMSEV DCT TESPI
Aircraft C414/L-SBDFGRY/S

Departure

Time 2026-04-23 08:13
Airport Kristiansand Airport (ENCN)

Arrival

Time 2026-04-23 09:23
Airport Copenhagen Kastrup Airport (EKCH)
Time Latitude Longitude Altitude Speed Heading
2026-04-23 07:57 58.20123 8.07726 47 ft 0 kts 122°
2026-04-23 08:09 58.20122 8.07733 47 ft 2 kts 94°
2026-04-23 08:09 58.20139 8.07733 47 ft 6 kts 291°
2026-04-23 08:10 58.20164 8.07621 47 ft 13 kts 308°
2026-04-23 08:10 58.20253 8.07672 48 ft 18 kts 32°
2026-04-23 08:10 58.20455 8.08123 50 ft 24 kts 52°
2026-04-23 08:11 58.20543 8.08349 51 ft 19 kts 86°
2026-04-23 08:11 58.20560 8.08568 51 ft 15 kts 79°
2026-04-23 08:11 58.20553 8.08700 51 ft 8 kts 174°
2026-04-23 08:11 58.20533 8.08683 51 ft 0 kts 218°
2026-04-23 08:12 58.20526 8.08673 51 ft 12 kts 217°
2026-04-23 08:12 58.20271 8.08334 50 ft 73 kts 214°
2026-04-23 08:12 58.19743 8.07647 126 ft 102 kts 211°
2026-04-23 08:12 58.19181 8.06919 528 ft 93 kts 213°
2026-04-23 08:13 58.18562 8.06064 593 ft 128 kts 214°
2026-04-23 08:13 58.17848 8.05085 1087 ft 124 kts 212°
2026-04-23 08:13 58.17073 8.04520 1553 ft 118 kts 191°
2026-04-23 08:13 58.16272 8.04143 1993 ft 119 kts 198°
2026-04-23 08:14 58.15488 8.03675 2486 ft 120 kts 199°
2026-04-23 08:14 58.14685 8.03225 2844 ft 122 kts 200°
2026-04-23 08:14 58.13863 8.02782 3208 ft 124 kts 200°
2026-04-23 08:14 58.13028 8.02315 3541 ft 126 kts 201°
2026-04-23 08:15 58.12173 8.01841 3879 ft 129 kts 201°
2026-04-23 08:15 58.11304 8.01365 4194 ft 131 kts 200°
2026-04-23 08:15 58.10414 8.00883 4515 ft 134 kts 200°
2026-04-23 08:15 58.09519 8.00397 4838 ft 137 kts 200°
2026-04-23 08:16 58.08571 7.99987 5223 ft 141 kts 186°
2026-04-23 08:16 58.07617 8.00439 5627 ft 145 kts 145°
2026-04-23 08:16 58.06822 8.01627 5982 ft 147 kts 137°
2026-04-23 08:16 58.06015 8.02835 6343 ft 149 kts 140°
2026-04-23 08:17 58.05188 8.04032 6672 ft 151 kts 139°
2026-04-23 08:17 58.04355 8.05253 6977 ft 152 kts 139°
2026-04-23 08:17 58.03529 8.06476 7286 ft 154 kts 139°
2026-04-23 08:17 58.02673 8.07745 7594 ft 155 kts 139°
2026-04-23 08:18 58.01833 8.08990 7899 ft 156 kts 139°
2026-04-23 08:18 58.00972 8.10265 8211 ft 158 kts 139°
2026-04-23 08:18 58.00093 8.11563 8525 ft 159 kts 139°
2026-04-23 08:18 57.99229 8.12838 8841 ft 160 kts 139°
2026-04-23 08:19 57.98336 8.14156 9160 ft 162 kts 139°
2026-04-23 08:19 57.97448 8.15465 9475 ft 163 kts 139°
2026-04-23 08:19 57.96549 8.16789 9790 ft 165 kts 139°
2026-04-23 08:19 57.95641 8.18124 10116 ft 166 kts 139°
2026-04-23 08:20 57.94729 8.19465 10414 ft 166 kts 139°
2026-04-23 08:20 57.93817 8.20805 10722 ft 166 kts 140°
2026-04-23 08:20 57.92919 8.22124 11020 ft 166 kts 140°
2026-04-23 08:20 57.92305 8.23026 11229 ft 166 kts 140°
2026-04-23 08:21 57.91395 8.24360 11538 ft 166 kts 140°
2026-04-23 08:21 57.90486 8.25692 11840 ft 165 kts 140°
2026-04-23 08:21 57.89285 8.27451 12263 ft 165 kts 141°
2026-04-23 08:21 57.88378 8.28780 12582 ft 165 kts 141°
2026-04-23 08:22 57.87472 8.30106 12895 ft 165 kts 141°
2026-04-23 08:22 57.86566 8.31429 13212 ft 165 kts 141°
2026-04-23 08:22 57.85967 8.32306 13422 ft 165 kts 141°
2026-04-23 08:22 57.85048 8.33646 13750 ft 165 kts 142°
2026-04-23 08:23 57.83848 8.35399 14160 ft 165 kts 142°
2026-04-23 08:23 57.83245 8.36277 14340 ft 166 kts 142°
2026-04-23 08:23 57.82333 8.37608 14619 ft 166 kts 142°
2026-04-23 08:23 57.81419 8.38939 14894 ft 166 kts 141°
2026-04-23 08:24 57.80502 8.40274 15177 ft 167 kts 141°
2026-04-23 08:24 57.79584 8.41610 15454 ft 168 kts 141°
2026-04-23 08:24 57.78660 8.42952 15737 ft 168 kts 141°
2026-04-23 08:24 57.77735 8.44296 16028 ft 168 kts 141°
2026-04-23 08:25 57.76807 8.45643 16312 ft 169 kts 141°
2026-04-23 08:25 57.75877 8.46993 16600 ft 169 kts 141°
2026-04-23 08:25 57.74945 8.48344 16888 ft 170 kts 141°
2026-04-23 08:25 57.74075 8.49825 17175 ft 168 kts 123°
2026-04-23 08:26 57.73573 8.51770 17458 ft 166 kts 107°
2026-04-23 08:26 57.73151 8.53787 17748 ft 167 kts 108°
2026-04-23 08:26 57.72721 8.55803 18049 ft 167 kts 108°
2026-04-23 08:26 57.72293 8.57821 18341 ft 167 kts 107°
2026-04-23 08:27 57.71866 8.59842 18635 ft 167 kts 108°
2026-04-23 08:27 57.71437 8.61871 18884 ft 168 kts 108°
2026-04-23 08:27 57.71007 8.63901 19138 ft 168 kts 108°
2026-04-23 08:27 57.70574 8.65942 19388 ft 169 kts 108°
2026-04-23 08:28 57.70138 8.67992 19641 ft 170 kts 108°
2026-04-23 08:28 57.69700 8.70049 19896 ft 171 kts 109°
2026-04-23 08:28 57.69257 8.72124 20149 ft 171 kts 109°
2026-04-23 08:28 57.68815 8.74197 20402 ft 172 kts 109°
2026-04-23 08:29 57.68368 8.76287 20657 ft 173 kts 109°
2026-04-23 08:29 57.67920 8.78382 20911 ft 174 kts 110°
2026-04-23 08:29 57.67277 8.80293 21161 ft 177 kts 136°
2026-04-23 08:29 57.66223 8.81461 21420 ft 177 kts 156°
2026-04-23 08:30 57.65121 8.82504 21677 ft 178 kts 151°
2026-04-23 08:30 57.64047 8.83652 21930 ft 178 kts 150°
2026-04-23 08:30 57.62969 8.84814 22184 ft 179 kts 150°
2026-04-23 08:30 57.61887 8.85967 22430 ft 179 kts 150°
2026-04-23 08:31 57.60799 8.87108 22676 ft 180 kts 151°
2026-04-23 08:31 57.59703 8.88245 22921 ft 180 kts 152°
2026-04-23 08:31 57.58604 8.89376 23162 ft 181 kts 152°
2026-04-23 08:31 57.57485 8.90522 23268 ft 189 kts 152°
2026-04-23 08:32 57.56295 8.91730 23287 ft 200 kts 152°
2026-04-23 08:32 57.55041 8.92992 23290 ft 209 kts 152°
2026-04-23 08:32 57.53739 8.94302 23292 ft 216 kts 152°
2026-04-23 08:32 57.52396 8.95647 23287 ft 222 kts 152°
2026-04-23 08:33 57.51020 8.97019 23289 ft 226 kts 152°
2026-04-23 08:33 57.49626 8.98407 23287 ft 229 kts 152°
2026-04-23 08:33 57.48214 8.99811 23289 ft 231 kts 152°
2026-04-23 08:33 57.46794 9.01240 23288 ft 233 kts 152°
2026-04-23 08:34 57.45343 9.02705 23286 ft 234 kts 152°
2026-04-23 08:34 57.43929 9.04199 23278 ft 235 kts 149°
2026-04-23 08:34 57.42552 9.05844 23282 ft 235 kts 145°
2026-04-23 08:34 57.41161 9.07434 23289 ft 235 kts 150°
2026-04-23 08:35 57.39726 9.08903 23289 ft 236 kts 152°
2026-04-23 08:35 57.38278 9.10331 23291 ft 236 kts 152°
2026-04-23 08:35 57.36823 9.11740 23287 ft 236 kts 153°
2026-04-23 08:35 57.35362 9.13142 23292 ft 236 kts 153°
2026-04-23 08:36 57.33899 9.14539 23287 ft 237 kts 153°
2026-04-23 08:36 57.32436 9.15931 23290 ft 237 kts 153°
2026-04-23 08:36 57.30977 9.17342 23290 ft 237 kts 150°
2026-04-23 08:36 57.29665 9.19164 23286 ft 236 kts 137°
2026-04-23 08:37 57.28445 9.21196 23288 ft 236 kts 139°
2026-04-23 08:37 57.27186 9.23149 23289 ft 236 kts 140°
2026-04-23 08:37 57.25917 9.25083 23286 ft 237 kts 140°
2026-04-23 08:37 57.24645 9.27022 23287 ft 237 kts 140°
2026-04-23 08:38 57.23377 9.28963 23289 ft 237 kts 140°
2026-04-23 08:38 57.22111 9.30907 23285 ft 237 kts 140°
2026-04-23 08:38 57.20830 9.32882 23289 ft 237 kts 140°
2026-04-23 08:38 57.19568 9.34829 23288 ft 237 kts 140°
2026-04-23 08:39 57.18320 9.36756 23288 ft 237 kts 140°
2026-04-23 08:39 57.17042 9.38730 23287 ft 237 kts 140°
2026-04-23 08:39 57.15777 9.40681 23293 ft 237 kts 140°
2026-04-23 08:39 57.14492 9.42660 23292 ft 238 kts 140°
2026-04-23 08:40 57.13223 9.44615 23291 ft 238 kts 140°
2026-04-23 08:40 57.11952 9.46572 23291 ft 238 kts 139°
2026-04-23 08:40 57.10679 9.48528 23296 ft 238 kts 140°
2026-04-23 08:40 57.09407 9.50483 23291 ft 238 kts 139°
2026-04-23 08:41 57.08135 9.52432 23293 ft 238 kts 139°
2026-04-23 08:41 57.06864 9.54382 23289 ft 238 kts 139°
2026-04-23 08:41 57.05595 9.56326 23296 ft 238 kts 139°
2026-04-23 08:41 57.04322 9.58274 23295 ft 238 kts 139°
2026-04-23 08:42 57.03050 9.60219 23292 ft 238 kts 139°
2026-04-23 08:42 57.01792 9.62139 23291 ft 238 kts 139°
2026-04-23 08:42 57.00521 9.64079 23293 ft 238 kts 139°
2026-04-23 08:42 56.99249 9.66018 23295 ft 238 kts 139°
2026-04-23 08:43 56.97975 9.67958 23295 ft 238 kts 139°
2026-04-23 08:43 56.96700 9.69897 23293 ft 238 kts 139°
2026-04-23 08:43 56.95428 9.71833 23293 ft 238 kts 139°
2026-04-23 08:43 56.94137 9.73795 23295 ft 238 kts 139°
2026-04-23 08:44 56.92877 9.75707 23291 ft 238 kts 139°
2026-04-23 08:44 56.91601 9.77642 23292 ft 238 kts 139°
2026-04-23 08:44 56.90307 9.79602 23289 ft 238 kts 139°
2026-04-23 08:44 56.89033 9.81531 23293 ft 238 kts 139°
2026-04-23 08:45 56.87736 9.83492 23294 ft 239 kts 139°
2026-04-23 08:45 56.86454 9.85426 23298 ft 239 kts 139°
2026-04-23 08:45 56.85169 9.87365 23292 ft 239 kts 139°
2026-04-23 08:45 56.83884 9.89303 23290 ft 239 kts 139°
2026-04-23 08:46 56.82601 9.91237 23289 ft 239 kts 139°
2026-04-23 08:46 56.81316 9.93170 23288 ft 239 kts 139°
2026-04-23 08:46 56.80032 9.95098 23286 ft 239 kts 139°
2026-04-23 08:46 56.78752 9.97036 23286 ft 239 kts 139°
2026-04-23 08:47 56.77469 9.98972 23288 ft 240 kts 139°
2026-04-23 08:47 56.76181 10.00905 23286 ft 240 kts 139°
2026-04-23 08:47 56.74892 10.02830 23287 ft 240 kts 139°
2026-04-23 08:47 56.73599 10.04758 23283 ft 240 kts 139°
2026-04-23 08:48 56.72304 10.06691 23282 ft 240 kts 139°
2026-04-23 08:48 56.71012 10.08619 23282 ft 240 kts 139°
2026-04-23 08:48 56.69720 10.10546 23280 ft 240 kts 139°
2026-04-23 08:48 56.68429 10.12471 23285 ft 240 kts 139°
2026-04-23 08:49 56.67134 10.14401 23283 ft 240 kts 139°
2026-04-23 08:49 56.65841 10.16324 23283 ft 240 kts 139°
2026-04-23 08:49 56.64544 10.18250 23285 ft 241 kts 139°
2026-04-23 08:49 56.63672 10.19547 23285 ft 241 kts 139°
2026-04-23 08:50 56.62373 10.21476 23284 ft 241 kts 139°
2026-04-23 08:50 56.61058 10.23427 23286 ft 241 kts 139°
2026-04-23 08:50 56.59761 10.25352 23283 ft 241 kts 139°
2026-04-23 08:50 56.58462 10.27274 23285 ft 241 kts 139°
2026-04-23 08:51 56.57162 10.29197 23286 ft 241 kts 139°
2026-04-23 08:51 56.55860 10.31121 23285 ft 241 kts 139°
2026-04-23 08:51 56.54558 10.33044 23287 ft 242 kts 139°
2026-04-23 08:51 56.53254 10.34969 23289 ft 241 kts 139°
2026-04-23 08:52 56.51953 10.36886 23286 ft 241 kts 139°
2026-04-23 08:52 56.50651 10.38803 23288 ft 241 kts 139°
2026-04-23 08:52 56.49348 10.40721 23291 ft 241 kts 139°
2026-04-23 08:52 56.48047 10.42631 23295 ft 241 kts 139°
2026-04-23 08:53 56.46742 10.44547 23294 ft 241 kts 139°
2026-04-23 08:53 56.45434 10.46471 23207 ft 245 kts 139°
2026-04-23 08:53 56.44092 10.48442 23001 ft 252 kts 139°
2026-04-23 08:53 56.42712 10.50465 22784 ft 257 kts 139°
2026-04-23 08:54 56.41315 10.52506 22580 ft 261 kts 139°
2026-04-23 08:54 56.39892 10.54581 22371 ft 263 kts 139°
2026-04-23 08:54 56.38463 10.56665 22165 ft 265 kts 139°
2026-04-23 08:54 56.37003 10.58793 21953 ft 267 kts 139°
2026-04-23 08:55 56.35553 10.60905 21749 ft 267 kts 139°
2026-04-23 08:55 56.34123 10.62986 21545 ft 268 kts 139°
2026-04-23 08:55 56.32669 10.65098 21344 ft 269 kts 138°
2026-04-23 08:55 56.31193 10.67242 21142 ft 269 kts 138°
2026-04-23 08:56 56.29732 10.69364 20944 ft 269 kts 138°
2026-04-23 08:56 56.28270 10.71485 20738 ft 270 kts 138°
2026-04-23 08:56 56.26809 10.73598 20549 ft 270 kts 138°
2026-04-23 08:56 56.25348 10.75712 20358 ft 270 kts 138°
2026-04-23 08:57 56.23882 10.77831 20161 ft 270 kts 138°
2026-04-23 08:57 56.22403 10.79967 19962 ft 269 kts 138°
2026-04-23 08:57 56.20942 10.82073 19768 ft 269 kts 138°
2026-04-23 08:57 56.19486 10.84171 19579 ft 268 kts 138°
2026-04-23 08:58 56.18030 10.86268 19389 ft 268 kts 138°
2026-04-23 08:58 56.16578 10.88357 19201 ft 268 kts 137°
2026-04-23 08:58 56.15103 10.90475 19012 ft 268 kts 137°
2026-04-23 08:58 56.13649 10.92562 18824 ft 267 kts 137°
2026-04-23 08:59 56.12195 10.94647 18639 ft 267 kts 137°
2026-04-23 08:59 56.10834 10.96875 18434 ft 263 kts 127°
2026-04-23 08:59 56.09707 10.99441 18219 ft 262 kts 124°
2026-04-23 08:59 56.08542 11.01959 18010 ft 263 kts 126°
2026-04-23 09:00 56.07354 11.04438 17801 ft 260 kts 126°
2026-04-23 09:00 56.06181 11.06869 17485 ft 256 kts 126°
2026-04-23 09:00 56.05027 11.09267 17146 ft 253 kts 126°
2026-04-23 09:00 56.03894 11.11636 16761 ft 248 kts 126°
2026-04-23 09:01 56.02787 11.13960 16380 ft 244 kts 126°
2026-04-23 09:01 56.01693 11.16264 16008 ft 242 kts 126°
2026-04-23 09:01 56.00608 11.18552 15640 ft 240 kts 126°
2026-04-23 09:01 55.99514 11.20863 15265 ft 240 kts 126°
2026-04-23 09:02 55.98438 11.23133 14913 ft 239 kts 126°
2026-04-23 09:02 55.97376 11.25372 14558 ft 239 kts 126°
2026-04-23 09:02 55.96303 11.27632 14206 ft 238 kts 127°
2026-04-23 09:02 55.95217 11.29917 13827 ft 238 kts 127°
2026-04-23 09:03 55.94147 11.32165 13429 ft 237 kts 127°
2026-04-23 09:03 55.93077 11.34410 13042 ft 236 kts 126°
2026-04-23 09:03 55.92015 11.36636 12657 ft 235 kts 127°
2026-04-23 09:03 55.90955 11.38855 12276 ft 234 kts 127°
2026-04-23 09:04 55.89902 11.41058 11902 ft 233 kts 127°
2026-04-23 09:04 55.88855 11.43246 11528 ft 231 kts 127°
2026-04-23 09:04 55.87802 11.45445 11159 ft 230 kts 127°
2026-04-23 09:04 55.86767 11.47605 10791 ft 229 kts 127°
2026-04-23 09:05 55.85738 11.49751 10462 ft 226 kts 127°
2026-04-23 09:05 55.84730 11.51848 10232 ft 221 kts 127°
2026-04-23 09:05 55.83738 11.53907 9976 ft 218 kts 126°
2026-04-23 09:05 55.82759 11.55946 9714 ft 216 kts 126°
2026-04-23 09:06 55.81800 11.57946 9455 ft 214 kts 126°
2026-04-23 09:06 55.80835 11.59952 9199 ft 213 kts 126°
2026-04-23 09:06 55.79872 11.61951 8940 ft 213 kts 126°
2026-04-23 09:06 55.78909 11.63946 8675 ft 212 kts 126°
2026-04-23 09:07 55.77952 11.65928 8413 ft 211 kts 126°
2026-04-23 09:07 55.77000 11.67897 8165 ft 210 kts 126°
2026-04-23 09:07 55.76049 11.69862 7916 ft 209 kts 126°
2026-04-23 09:07 55.75101 11.71821 7667 ft 209 kts 126°
2026-04-23 09:08 55.74154 11.73777 7440 ft 209 kts 126°
2026-04-23 09:08 55.73203 11.75737 7182 ft 209 kts 125°
2026-04-23 09:08 55.72262 11.77680 6936 ft 208 kts 125°
2026-04-23 09:08 55.71320 11.79627 6693 ft 207 kts 125°
2026-04-23 09:09 55.70384 11.81555 6426 ft 206 kts 125°
2026-04-23 09:09 55.69450 11.83473 6165 ft 205 kts 125°
2026-04-23 09:09 55.68521 11.85379 5913 ft 204 kts 125°
2026-04-23 09:09 55.67597 11.87280 5662 ft 204 kts 125°
2026-04-23 09:10 55.66672 11.89178 5401 ft 204 kts 125°
2026-04-23 09:10 55.64824 11.92965 4904 ft 202 kts 124°
2026-04-23 09:10 55.63905 11.94853 4646 ft 202 kts 125°
2026-04-23 09:11 55.62985 11.96726 4388 ft 201 kts 125°
2026-04-23 09:11 55.62071 11.98590 4177 ft 198 kts 125°
2026-04-23 09:11 55.61181 12.00402 4061 ft 192 kts 126°
2026-04-23 09:11 55.60328 12.02136 4033 ft 183 kts 126°
2026-04-23 09:12 55.59505 12.03809 4035 ft 178 kts 125°
2026-04-23 09:12 55.58705 12.05451 4029 ft 175 kts 125°
2026-04-23 09:12 55.57910 12.07066 4025 ft 173 kts 125°
2026-04-23 09:12 55.57120 12.08672 4026 ft 173 kts 125°
2026-04-23 09:13 55.56332 12.10282 4031 ft 173 kts 125°
2026-04-23 09:13 55.55533 12.11916 4025 ft 173 kts 126°
2026-04-23 09:13 55.54740 12.13521 4024 ft 174 kts 126°
2026-04-23 09:13 55.53945 12.15119 4023 ft 173 kts 126°
2026-04-23 09:14 55.53162 12.16695 4029 ft 172 kts 126°
2026-04-23 09:14 55.52358 12.18310 4063 ft 174 kts 126°
2026-04-23 09:14 55.51568 12.19903 4040 ft 175 kts 126°
2026-04-23 09:14 55.50753 12.21539 4043 ft 176 kts 126°
2026-04-23 09:15 55.49954 12.23136 4017 ft 175 kts 126°
2026-04-23 09:15 55.49148 12.24737 4014 ft 173 kts 126°
2026-04-23 09:15 55.48342 12.26339 3914 ft 178 kts 126°
2026-04-23 09:15 55.47514 12.27998 3787 ft 181 kts 126°
2026-04-23 09:16 55.46680 12.29683 3660 ft 183 kts 126°
2026-04-23 09:16 55.45886 12.31424 3530 ft 179 kts 110°
2026-04-23 09:16 55.45701 12.33482 3410 ft 168 kts 82°
2026-04-23 09:16 55.45765 12.35534 3311 ft 166 kts 77°
2026-04-23 09:17 55.45874 12.37549 3262 ft 164 kts 76°
2026-04-23 09:17 55.45959 12.38887 3224 ft 163 kts 75°
2026-04-23 09:17 55.46147 12.40820 3166 ft 153 kts 56°
2026-04-23 09:17 55.46852 12.42022 3120 ft 142 kts 31°
2026-04-23 09:18 55.47638 12.43077 3057 ft 142 kts 31°
2026-04-23 09:18 55.48458 12.44146 2840 ft 149 kts 30°
2026-04-23 09:18 55.49276 12.45211 2648 ft 144 kts 31°
2026-04-23 09:18 55.50066 12.46262 2474 ft 141 kts 33°
2026-04-23 09:19 55.50825 12.47380 2274 ft 143 kts 36°
2026-04-23 09:19 55.51566 12.48554 2067 ft 144 kts 37°
2026-04-23 09:19 55.52310 12.49734 1864 ft 141 kts 36°
2026-04-23 09:19 55.53001 12.50822 1694 ft 128 kts 36°
2026-04-23 09:20 55.53664 12.51827 1512 ft 124 kts 36°
2026-04-23 09:20 55.54294 12.52790 1350 ft 115 kts 36°
2026-04-23 09:20 55.54881 12.53690 1191 ft 108 kts 36°
2026-04-23 09:20 55.55418 12.54518 1056 ft 98 kts 35°
2026-04-23 09:21 55.55920 12.55288 927 ft 95 kts 37°
2026-04-23 09:21 55.56423 12.56053 798 ft 97 kts 36°
2026-04-23 09:21 55.56943 12.56849 633 ft 101 kts 37°
2026-04-23 09:21 55.57457 12.57676 517 ft 97 kts 37°
2026-04-23 09:22 55.57966 12.58440 382 ft 95 kts 38°
2026-04-23 09:22 55.58460 12.59198 282 ft 94 kts 38°
2026-04-23 09:22 55.58964 12.59974 110 ft 96 kts 37°
2026-04-23 09:22 55.59451 12.60714 18 ft 81 kts 36°
2026-04-23 09:23 55.59806 12.61260 13 ft 57 kts 32°
2026-04-23 09:23 55.60064 12.61643 18 ft 42 kts 41°
2026-04-23 09:23 55.60261 12.61956 15 ft 37 kts 43°
2026-04-23 09:23 55.60446 12.62245 17 ft 31 kts 40°
2026-04-23 09:24 55.60595 12.62489 21 ft 28 kts 54°
2026-04-23 09:24 55.60674 12.62795 17 ft 26 kts 68°
2026-04-23 09:24 55.60717 12.63009 14 ft 0 kts 65°